Jonesville, VA

8:14 PM EDT on June 23, 2017 (GMT -0400)
Jonesville

Weather History for K0VG - November, 2012

Change the Weather History Date:

Saturday, November 3, 2012

  Actual Average (KLNP) Record (KLNP)
Temperature  
Mean Temperature 44 °F -  
Max Temperature 60 °F 56 °F 78 °F (2003)
Min Temperature 28 °F 38 °F 19 °F (1996)
Degree Days  
Heating Degree Days 21    
Moisture  
Dew Point 31 °F    
Average Humidity 68    
Maximum Humidity 100    
Minimum Humidity 29    
Precipitation  
Precipitation 0.00 in - - ()
Sea Level Pressure  
Sea Level Pressure 30.09 in    
Wind  
Wind Speed 0 mph (North)    
Max Wind Speed 4 mph    
Max Gust Speed -    
Visibility 10 miles    
Events      
Averages and records for this station are not official NWS values.
T = Trace of Precipitation, MM = Missing Value Source: NWS Daily Summary

Daily Weather History Graph

Daily Weather History Graph

Search for Another Location

Airport or City:

Trip Planner

Search our weather history database for the weather conditions in past years. The results will help you decide how hot, cold, wet, or windy it might be!

Date:

Astronomy

Nov. 03, 2012 Rise Set
Actual Time 7:58 AM EDT 6:33 PM EDT
Civil Twilight 7:32 AM EDT 7:00 PM EDT
Nautical Twilight 7:01 AM EDT 7:30 PM EDT
Astronomical Twilight 6:31 AM EDT 8:01 PM EDT
Moon 10:16 PM EDT (11/3) 11:59 AM EDT (11/3)
Length of Visible Light 11h 28m
Length of Day
10h 34m
Waning Gibbous, 80% of the Moon is Illuminated
Nov 3
Waning Gibbous
Nov 6
Last Quarter
Nov 13
New
Nov 20
First Quarter
Nov 28
Full

Hourly Weather History & Observations

Time (EDT) Temp. Dew Point Humidity Pressure Visibility Wind Dir Wind Speed Gust Speed Precip Events Conditions
12:15 AM 33.8 °F 32.0 °F 93% 30.07 in 10.0 mi Calm Calm - N/A   Unknown
12:35 AM 33.8 °F 32.0 °F 93% 30.07 in 10.0 mi Calm Calm - N/A   Unknown
12:55 AM 33.8 °F 32.0 °F 93% 30.08 in 10.0 mi Calm Calm - N/A   Unknown
1:15 AM 32.0 °F 30.2 °F 93% 30.08 in 10.0 mi Calm Calm - N/A   Unknown
1:35 AM 32.0 °F 32.0 °F 100% 30.08 in 10.0 mi Calm Calm - N/A   Unknown
1:55 AM 32.0 °F 30.2 °F 93% 30.07 in 10.0 mi Calm Calm - N/A   Unknown
2:15 AM 32.0 °F 30.2 °F 93% 30.07 in 10.0 mi Calm Calm - N/A   Unknown
2:35 AM 32.0 °F 30.2 °F 93% 30.08 in 10.0 mi Calm Calm - N/A   Unknown
2:55 AM 32.0 °F 30.2 °F 93% 30.08 in 10.0 mi Calm Calm - N/A   Unknown
3:15 AM 30.2 °F 28.4 °F 93% 30.09 in 10.0 mi Calm Calm - N/A   Unknown
3:35 AM 32.0 °F 28.4 °F 87% 30.09 in 10.0 mi Calm Calm - N/A   Unknown
3:55 AM 32.0 °F 28.4 °F 87% 30.10 in 10.0 mi Calm Calm - N/A   Unknown
4:15 AM 30.2 °F 28.4 °F 93% 30.10 in 10.0 mi Calm Calm - N/A   Unknown
4:35 AM 30.2 °F 28.4 °F 93% 30.09 in 10.0 mi Calm Calm - N/A   Unknown
4:55 AM 28.4 °F 28.4 °F 100% 30.10 in 10.0 mi Calm Calm - N/A   Unknown
5:15 AM 30.2 °F 28.4 °F 93% 30.11 in 10.0 mi Calm Calm - N/A   Clear
5:35 AM 28.4 °F 28.4 °F 100% 30.12 in 10.0 mi Calm Calm - N/A   Clear
5:55 AM 30.2 °F 28.4 °F 93% 30.13 in 10.0 mi Calm Calm - N/A   Unknown
6:15 AM 28.4 °F 28.4 °F 100% 30.14 in 10.0 mi Calm Calm - N/A   Unknown
6:35 AM 28.4 °F 26.6 °F 93% 30.14 in 10.0 mi Calm Calm - N/A   Unknown
6:55 AM 28.4 °F 28.4 °F 100% 30.14 in 10.0 mi Calm Calm - N/A   Unknown
7:15 AM 28.4 °F 26.6 °F 93% 30.14 in 10.0 mi Calm Calm - N/A   Unknown
7:35 AM 28.4 °F 26.6 °F 93% 30.15 in 10.0 mi Calm Calm - N/A   Unknown
7:55 AM 28.4 °F 26.6 °F 93% 30.15 in 10.0 mi Calm Calm - N/A   Unknown
8:15 AM 28.4 °F 28.4 °F 100% 30.16 in 10.0 mi Calm Calm - N/A   Unknown
8:35 AM 30.2 °F 28.4 °F 93% 30.16 in 10.0 mi Calm Calm - N/A   Unknown
8:55 AM 32.0 °F 28.4 °F 87% 30.16 in 10.0 mi Calm Calm - N/A   Clear
9:15 AM 32.0 °F 30.2 °F 93% 30.17 in 10.0 mi Calm Calm - N/A   Clear
9:35 AM 35.6 °F 32.0 °F 87% 30.17 in 10.0 mi Calm Calm - N/A   Clear
9:55 AM 37.4 °F 32.0 °F 81% 30.17 in 10.0 mi Calm Calm - N/A   Clear
10:15 AM 41.0 °F 32.0 °F 70% 30.17 in 10.0 mi Calm Calm - N/A   Clear
10:35 AM 42.8 °F 32.0 °F 66% 30.17 in 10.0 mi Calm Calm - N/A   Clear
10:55 AM 46.4 °F 32.0 °F 57% 30.17 in 10.0 mi Calm Calm - N/A   Clear
11:15 AM 48.2 °F 32.0 °F 54% 30.16 in 10.0 mi Calm Calm - N/A   Clear
11:35 AM 48.2 °F 32.0 °F 54% 30.16 in 10.0 mi Calm Calm - N/A   Clear
11:55 AM 50.0 °F 30.2 °F 47% 30.16 in 10.0 mi Calm Calm - N/A   Partly Cloudy
12:15 PM 51.8 °F 30.2 °F 44% 30.15 in 10.0 mi Calm Calm - N/A   Clear
12:35 PM 53.6 °F 28.4 °F 38% 30.15 in 10.0 mi Calm Calm - N/A   Partly Cloudy
12:55 PM 53.6 °F 28.4 °F 38% 30.13 in 10.0 mi Calm Calm - N/A   Clear
1:15 PM 57.2 °F 28.4 °F 33% 30.12 in 10.0 mi Calm Calm - N/A   Clear
1:35 PM 57.2 °F 28.4 °F 33% 30.11 in 10.0 mi Calm Calm - N/A   Partly Cloudy
1:55 PM 55.4 °F 28.4 °F 36% 30.10 in 10.0 mi Calm Calm - N/A   Mostly Cloudy
2:15 PM 57.2 °F 28.4 °F 33% 30.09 in 10.0 mi Calm Calm - N/A   Overcast
2:35 PM 57.2 °F 28.4 °F 33% 30.09 in 10.0 mi NNW 3.5 mph - N/A   Mostly Cloudy
2:55 PM 57.2 °F 28.4 °F 33% 30.08 in 10.0 mi Calm Calm - N/A   Overcast
3:15 PM 57.2 °F 28.4 °F 33% 30.08 in 10.0 mi Calm Calm - N/A   Overcast
3:35 PM 57.2 °F 28.4 °F 33% 30.06 in 10.0 mi Calm Calm - N/A   Mostly Cloudy
3:55 PM 59.0 °F 28.4 °F 31% 30.06 in 10.0 mi Calm Calm - N/A   Partly Cloudy
4:15 PM 60.8 °F 28.4 °F 29% 30.05 in 10.0 mi Calm Calm - N/A   Scattered Clouds
4:35 PM 59.0 °F 28.4 °F 31% 30.05 in 10.0 mi Calm Calm - N/A   Scattered Clouds
4:55 PM 60.8 °F 30.2 °F 31% 30.03 in 10.0 mi Calm Calm - N/A   Clear
5:15 PM 60.8 °F 28.4 °F 29% 30.03 in 10.0 mi Calm Calm - N/A   Partly Cloudy
5:35 PM 60.8 °F 30.2 °F 31% 30.02 in 10.0 mi Calm Calm - N/A   Partly Cloudy
5:55 PM 59.0 °F 30.2 °F 34% 30.01 in 10.0 mi Calm Calm - N/A   Clear
6:15 PM 57.2 °F 32.0 °F 38% 30.01 in 10.0 mi Calm Calm - N/A   Clear
6:35 PM 55.4 °F 33.8 °F 44% 30.01 in 10.0 mi Calm Calm - N/A   Unknown
6:55 PM 53.6 °F 35.6 °F 51% 30.00 in 10.0 mi Calm Calm - N/A   Unknown
7:15 PM 51.8 °F 33.8 °F 50% 30.00 in 10.0 mi NE 3.5 mph - N/A   Unknown
7:35 PM 51.8 °F 37.4 °F 58% 30.01 in 9.0 mi Calm Calm - N/A   Unknown
7:55 PM 50.0 °F 35.6 °F 58% 30.01 in 8.0 mi Calm Calm - N/A   Unknown
8:15 PM 48.2 °F 37.4 °F 66% 30.01 in 10.0 mi Calm Calm - N/A   Unknown
8:35 PM 46.4 °F 39.2 °F 76% 30.00 in 9.0 mi Calm Calm - N/A   Unknown
8:55 PM 46.4 °F 37.4 °F 71% 30.00 in 10.0 mi Calm Calm - N/A   Unknown
9:15 PM 46.4 °F 39.2 °F 76% 30.00 in 10.0 mi Calm Calm - N/A   Unknown
9:55 PM 48.2 °F 37.4 °F 66% 30.01 in 8.0 mi Calm Calm - N/A   Unknown
10:15 PM 46.4 °F 39.2 °F 76% 30.01 in 9.0 mi Calm Calm - N/A   Unknown
10:55 PM 46.4 °F 37.4 °F 71% 30.02 in 10.0 mi Calm Calm - N/A   Unknown
11:15 PM 46.4 °F 37.4 °F 71% 30.02 in 10.0 mi Calm Calm - N/A   Unknown
11:35 PM 44.6 °F 39.2 °F 81% 30.02 in 10.0 mi Calm Calm - N/A   Unknown
11:55 PM 46.4 °F 37.4 °F 71% 30.02 in 10.0 mi Calm Calm - N/A   Unknown